TimeEDT,TemperatureF,Dew PointF,Humidity,Sea Level PressureIn,VisibilityMPH,Wind Direction,Wind SpeedMPH,Gust SpeedMPH,PrecipitationIn,Events,Conditions,WindDirDegrees,DateUTC
12:55 AM,73.4,69.8,88,30.06,10.0,Calm,Calm,-,N/A,,Clear,0,2013-05-13 04:55:00
1:58 AM,72.1,68.5,88,30.05,10.0,Calm,Calm,-,N/A,,Clear,350,2013-05-13 05:58:00
2:58 AM,72.1,68.4,88,30.03,10.0,Calm,Calm,-,N/A,,Clear,0,2013-05-13 06:58:00
3:58 AM,71.1,68.0,90,30.03,10.0,West,1.2,-,N/A,,Clear,270,2013-05-13 07:58:00
4:58 AM,71.1,69.3,94,30.03,10.0,Calm,Calm,-,N/A,,Clear,0,2013-05-13 08:58:00
5:58 AM,70.7,69.3,95,30.03,10.0,Calm,Calm,-,N/A,,Clear,0,2013-05-13 09:58:00
6:58 AM,71.2,68.5,91,30.05,10.0,NW,3.5,-,N/A,,Clear,320,2013-05-13 10:58:00
7:58 AM,73.9,70.9,90,30.07,10.0,NW,3.5,-,N/A,,Clear,310,2013-05-13 11:58:00
8:58 AM,78.4,71.6,79,30.08,10.0,NNW,4.6,-,N/A,,Clear,330,2013-05-13 12:58:00
9:58 AM,81.5,70.9,70,30.10,10.0,Variable,2.3,-,N/A,,Clear,0,2013-05-13 13:58:00
10:58 AM,83.3,70.2,64,30.10,10.0,Calm,Calm,-,N/A,,Clear,10,2013-05-13 14:58:00
11:58 AM,86.4,69.3,57,30.11,10.0,Variable,2.3,-,N/A,,Partly Cloudy,0,2013-05-13 15:58:00
12:58 PM,87.1,68.0,53,30.08,10.0,SSW,4.6,-,N/A,,Partly Cloudy,210,2013-05-13 16:58:00
1:58 PM,87.3,70.5,57,30.08,10.0,SE,6.9,-,N/A,,Partly Cloudy,130,2013-05-13 17:58:00
2:58 PM,87.6,71.2,58,30.06,10.0,East,11.5,-,N/A,,Scattered Clouds,90,2013-05-13 18:58:00
4:58 PM,86.4,71.6,61,30.03,10.0,SW,10.4,-,N/A,,Partly Cloudy,220,2013-05-13 20:58:00
5:14 PM,87.8,68.0,52,30.03,10.0,NNW,21.9,25.3,N/A,,Scattered Clouds,330,2013-05-13 21:14:00
5:32 PM,80.6,68.0,65,30.04,10.0,North,19.6,-,N/A,,Scattered Clouds,10,2013-05-13 21:32:00
5:58 PM,79.3,67.6,67,30.05,10.0,North,6.9,-,N/A,,Clear,10,2013-05-13 21:58:00
6:58 PM,83.5,67.6,59,30.04,10.0,WNW,12.7,-,N/A,,Clear,300,2013-05-13 22:58:00
7:58 PM,81.7,67.6,62,30.05,10.0,West,3.5,-,N/A,,Mostly Cloudy,280,2013-05-13 23:58:00
8:58 PM,78.4,70.2,76,30.07,10.0,ENE,3.5,-,N/A,,Partly Cloudy,60,2013-05-14 00:58:00
9:10 PM,78.8,69.8,74,30.06,10.0,ENE,3.5,-,N/A,,Light Drizzle,60,2013-05-14 01:10:00
9:14 PM,78.8,69.8,74,30.06,10.0,ENE,4.6,-,N/A,,Scattered Clouds,60,2013-05-14 01:14:00
9:32 PM,78.8,71.6,78,30.07,10.0,West,9.2,-,N/A,,Light Drizzle,260,2013-05-14 01:32:00
9:52 PM,75.2,71.6,89,30.07,3.0,WSW,4.6,-,N/A,Fog-Rain,Heavy Rain,250,2013-05-14 01:52:00
9:58 PM,75.4,71.4,87,30.08,3.0,Variable,4.6,-,0.59,Rain,Heavy Rain,0,2013-05-14 01:58:00
10:06 PM,75.2,71.6,89,30.09,2.0,Variable,4.6,-,N/A,Rain,Heavy Rain,0,2013-05-14 02:06:00
10:15 PM,75.2,71.6,89,30.09,3.0,Variable,6.9,-,N/A,Rain,Heavy Rain,0,2013-05-14 02:15:00
10:22 PM,75.2,71.6,89,30.09,5.0,SE,9.2,-,N/A,Rain,Rain,140,2013-05-14 02:22:00
10:27 PM,75.2,71.6,89,30.09,7.0,Variable,4.6,-,N/A,Rain,Rain,0,2013-05-14 02:27:00
10:36 PM,75.2,71.6,89,30.08,10.0,SE,4.6,-,N/A,,Mostly Cloudy,140,2013-05-14 02:36:00
10:41 PM,75.2,71.6,89,30.08,10.0,SE,4.6,-,N/A,,Mostly Cloudy,130,2013-05-14 02:41:00
10:58 PM,74.8,71.6,90,30.10,10.0,ESE,4.6,-,1.24,,Partly Cloudy,120,2013-05-14 02:58:00
11:58 PM,74.7,72.7,94,30.10,10.0,North,2.3,-,N/A,,Partly Cloudy,350,2013-05-14 03:58:00